www.pogodaiklimat.ru

Погода и климат >> Архив погоды >> Китай >> Шаньси >> Юаньпин


ПОГОДА в Юаньпине

  • Прогноз погоды в Юаньпине
  • Монитор погоды в Юаньпине

АРХИВ ПОГОДЫ в Юаньпине

Время (UTC), дата Ветер
(напр.,м/с)
 
Видим.   Явления Облачность Т
(С)
Тd
(С)
f
(%)
Тe
(С)
Тes
(С)
Комфортность P
(гПа)
Po
(гПа)
Тmin
(С)
Tmax
(С)
R
(мм)
R24
(мм)
S
(см)
03 12.03 С 5 30 км ясно +3.9 -28.9 7 0 +6 1022.3 921.9
06 12.03 С 6 30 км ясно +6.9 -28.3 6 +4 +8 1020.1 920.9 -2.6
09 12.03 СЗ 8 30 км ясно +7.8 -29.6 5 +4 +5 1019.8 921.0
12 12.03 С 5 30 км ясно +5.3 -25.1 9 +2 +2 1023.1 923.1
18 12.03 СВ 2 30 км ?/? +0.9 -20.1 19 -1 -1 1025.0 923.3 +8.4
21 12.03 С 3 30 км н/о +0.9 -19.0 21 -2 -2 1024.9 923.2
00 13.03 В 2 30 км 1/1
[]
+1.1 -18.8 21 -1 +1 1026.8 925.0
03 13.03 Ю 2 30 км 1/1
[]
+6.9 -19.6 13 +6 +16 опасность
простуды
1026.0 926.3
06 13.03 С 9 30 км 1/1 1000 м
[]
+11.1 -23.5 7 +8 +9 1022.1 924.1 -2.0
09 13.03 СЗ 6 30 км 1/1
[]
+12.3 -24.3 6 +10 +11 1021.4 923.9
12 13.03 СЗ 3 30 км 1/1
[]
+9.1 -23.5 8 +8 +8 1023.1 924.4
18 13.03 СЗ 2 30 км ?/? +2.9 -21.2 15 +1 +1 1024.0 923.1 +12.6
21 13.03 С 2 30 км н/о +1.4 -19.7 19 -1 -1 1023.5 922.1
00 14.03 З 1 21 км 3/3
[]
+2.0 -17.5 22 +2 +3 1024.6 923.3
03 14.03 С 9 30 км 1/1 1000 м
[]
+9.3 -20.8 10 +6 +7 1024.0 925.3
06 14.03 СЗ 8 30 км 3/3 1000 м
[]
+11.4 -23.3 7 +9 +10 1023.3 925.3 -0.3
09 14.03 СЗ 7 30 км 3/3 1000 м
[]
+11.2 -25.1 6 +9 +9 1023.7 925.6
12 14.03 С 2 30 км 3/3 1000 м
[]
+7.9 -21.9 10 +7 +7 1026.8 927.3
18 14.03 С 2 30 км ?/? +5.9 -18.8 15 +5 +5 1026.2 926.1 +12.2
21 14.03 С 5 30 км н/о +7.0 -17.1 16 +4 +4 1025.1 925.5
00 15.03 С 2 30 км ясно +7.7 -16.5 16 +7 +9 1026.3 926.8
03 15.03 СЗ 7 30 км ясно +12.6 -17.1 11 +11 +14 1025.0 927.3
06 15.03 С 6 27 км ясно +15.3 -22.1 6 +14 +19 1021.0 924.5 +5.5
09 15.03 С 3 30 км ясно +15.6 -24.0 5 +15 +17 1018.7 922.5
12 15.03 З 1 13 км ясно +10.2 -21.3 9 +11 +11 1019.9 921.9
18 15.03 С 2 19 км ?/? +2.9 -19.1 18 +1 +1 1020.4 919.8 +15.9
21 15.03 З 1 30 км н/о +1.5 -17.4 23 +1 +1 1020.0 919.0
00 16.03 Ю 1 27 км 1/1
[]
+4.0 -18.2 18 +4 +6 1022.0 921.7
03 16.03 С 3 30 км 3/3
[]
+14.7 -19.2 8 +14 +21 1021.2 924.5
06 16.03 С 4 30 км 1/1
[]
+17.9 -20.2 6 +18 +25 1018.9 923.4 +0.1
09 16.03 С 4 30 км 1/1
[]
+17.1 -20.8 6 +17 +18 1018.8 923.1
12 16.03 СЗ 3 30 км 3/3
[]
+11.7 -16.8 12 +11 +11 1022.1 924.7
18 16.03 С 3 30 км ?/? +6.5 -14.9 20 +5 +5 1022.8 923.2 +17.9
21 16.03 З 1 30 км н/о +2.7 -14.9 26 +2 +2 1023.4 922.5
00 17.03 С 2 30 км 3/3 1000 м
[]
+3.3 -13.5 28 +1 +3 1025.6 924.7
03 17.03 В 1 30 км 3/3 1000 м
[]
+11.2 -13.7 16 +12 +21 1023.3 925.3
06 17.03 Ю 2 30 км 3/3 1000 м
[]
+16.0 -14.5 11 +16 +24 1018.2 922.2 +2.1
09 17.03 Ю 3 30 км 5/5 1000 м
[]
+17.2 -20.7 6 +17 +18 1015.9 920.5
12 17.03 С 1 25 км 5/5 1000 м
[]
+12.5 -17.2 11 +13 +13 1017.2 920.2
18 17.03 С 3 25 км ?/? +8.0 -13.0 21 +6 +6 1015.2 916.9 +17.7
21 17.03 С 1 22 км н/о +5.9 -11.7 27 +6 +6 1014.1 915.2
00 18.03 З 1 13 км 9/9
[]
+5.1 -10.6 31 +5 +5 1015.2 915.9
03 18.03 Ю 3 18 км 4/4
[]
+13.1 -11.4 17 +12 +18 1013.0 916.6
06 18.03 В 3 30 км 9/9 1000 м
[]
+18.2 -12.7 11 +18 +19 1009.1 914.6 +4.4
09 18.03 З 1 30 км 3/3
[]
+19.0 -14.6 9 +20 +21 1007.8 913.7
12 18.03 ЮЗ 2 30 км ясно +15.1 -12.2 14 +15 +15 1009.4 913.9
18 18.03 СЗ 1 22 км ?/? +5.3 -11.3 29 +5 +5 1009.8 911.1 +19.0
21 18.03 С 2 30 км н/о +4.5 -11.6 30 +3 +3 1009.7 910.7
00 19.03 СВ 1 23 км 8/8
[]
+5.1 -11.5 29 +5 +5 1011.5 912.6

 

Местоположение метеостанции Юаньпин (Шаньси, Китай): широта 38.75 долгота 112.70 высота над уровнем моря 838 м.

В архиве по умолчанию представлена погода в Юаньпине за последнюю неделю. Архивные данные за месяц целиком и за предыдущие месяцы, начиная с января 2011 года, Вы можете получить, выбрав интересующий диапазон дат из раскрывающегося списка и нажав кнопку "Ввод!".


*Определитесь, кто Вы:
робот инопланетянин человек

Внимание! Время в таблицах - всемирное. Для получения местного времени необходимо прибавить поправку, которая равна 8 ч.

Смотрите также архив погоды в соседних городах и на ближайших метеорологических станциях:

Погода на Утайшане (Шаньси, Китай) (74 км)
Погода в Тайюанье (Шаньси, Китай) (109 км)
Погода в Хэцюе (Шаньси, Китай) (151 км)
Погода в Датуне (Шаньси, Китай) (160 км)
Погода в Шицзячжуане (Хэбэй, Китай) (169 км)
Погода в Юйшэ (Шаньси, Китай) (188 км)
Погода в Лиши (Шаньси, Китай) (197 км)
Погода в Юйсяне (Шаньси, Китай) (200 км)
Погода в Цзесю (Шаньси, Китай) (203 км)
Погода в Синтае (Хэбэй, Китай) (245 км)

Пояснения к столбцам:

Ветер - указаны скорость ветра в м/с - средняя за 10 мин, порывы в срок и между сроками (в фигурных скобках) и направление, откуда дует ветер: С - северный, СВ - северо-восточный, В - восточный, ЮВ - юго-восточный, Ю - южный, ЮЗ - юго-западный, З - западный, СЗ - северо-западный.
Видимость - горизонтальная дальность видимости в метрах или километрах. При видимости от 1 до 10 км при отсутствии осадков обычно наблюдается дымка, при ухудшении видимости до 1 км и менее - туман. В сухую погоду видимость может ухудшаться дымом, пылью или мглою.
Явления - указаны атмосферные явления, наблюдавшиеся в срок или в последний час перед сроком; фигурными скобками обозначены явления, наблюдавшиеся между сроками (за 1-3 часа до срока); квадратными скобками обозначены град или гололедные отложения с указанием их диаметра в мм.
Облачность - указаны через наклонную черту общая и нижняя облачность в баллах и высота нижней границы облаков в метрах; квадратными скобками обозначены формы облаков: Ci - перистые, Cs - перисто-слоистые, Cc - перисто-кучевые, Ac - высококучевые, As - высокослоистые, Sc - слоисто-кучевые, Ns - слоисто-дождевые, Cu - кучевые, Cb - кучево-дождевые. Подробнее классификацию облаков см. в Атласе облаков (PDF).
T - Температура воздуха - температура, измеренная на высоте 2 м над землей.
Td - Температура точки росы - температура, при понижении до которой содержащийся в воздухе водяной пар достигнет насыщения.
f - Относительная влажность воздуха - влажноcть воздуха, измеренная на высоте 2 м над землей.
Te - Эффективная температура - температура, которую ощущает одетый по сезону человек в тени. Характеристика душности погоды. При расчете учитывается влияние влажности воздуха и скорости ветра на теплоощущения человека.
Tes - Эффективная температура на солнце - температура, которую ощущает человек, с поправкой на солнечный нагрев. Характеристика знойности погоды. Зависит от высоты солнца над горизонтом, облачности и скорости ветра. Ночью, в пасмурную погоду, а также при ветре 12 м/с и более поправка равна нулю.
P - Атмосферное давление - приведенное к уровню моря атмосферное давление.
Po - Атмосферное давление - измеренное на уровне метеостанции атмосферное давление.
Tmin - Минимальная температура - минимум температуры воздуха на высоте 2 м над землей.
Tmax - Максимальная температура - максимум температуры воздуха на высоте 2 м над землей.
R - Количество осадков - Количество выпавших осадков за период времени, мм. При наведении курсора мыши на число - период времени, за который выпало указанное количество осадков.
R24 - Количество осадков - Количество выпавших осадков за 24 часа, мм.
S - Снежный покров - Высота снежного покрова, см. При наведении курсора мыши на число - состояние снежного покрова и степень покрытия местности в баллах.